• In Uzbekistan
  • List of Countries
  • For 7 days
  • Water Temperature
  • Satellite Maps
  • Weather Map
  • Weather Widgets
  • user-avatar
    Login

    Hourly Weather Laksau

    Today, 20 January, Saturday

    Time Temperature Precipitation Wind Pressure Humidity
    00:00 +16°C° 0 mm 1 mps 703 mmHg 91%
    01:00 +15°C° 0 mm 1 mps 703 mmHg 93%
    02:00 +15°C° 0 mm 1 mps 702 mmHg 92%
    03:00 +15°C° 0 mm 1 mps 702 mmHg 92%
    04:00 +15°C° 0 mm 1 mps 702 mmHg 92%
    05:00 +15°C° 0 mm 1 mps 702 mmHg 92%
    06:00 +15°C° 0 mm 1 mps 702 mmHg 91%
    07:00 +15°C° 0 mm 1 mps 703 mmHg 91%
    08:00 +19°C° 0 mm 1 mps 703 mmHg 80%
    09:00 +22°C° 0 mm 1 mps 704 mmHg 70%
    10:00 +25°C° 0 mm 1 mps 704 mmHg 59%
    11:00 +26°C° 0 mm 1 mps 704 mmHg 55%
    12:00 +28°C° 0 mm 1 mps 704 mmHg 52%
    13:00 +29°C° 0 mm 1 mps 704 mmHg 48%
    14:00 +29°C° 0 mm 1 mps 703 mmHg 51%
    15:00 +28°C° 0 mm 1 mps 702 mmHg 53%
    16:00 +27°C° 0 mm 1 mps 702 mmHg 56%
    17:00 +25°C° 0 mm 1 mps 702 mmHg 65%
    18:00 +23°C° 0 mm 1 mps 702 mmHg 73%
    19:00 +21°C° 0 mm 1 mps 702 mmHg 82%
    20:00 +21°C° 0 mm 1 mps 702 mmHg 85%
    21:00 +20°C° 0 mm 1 mps 702 mmHg 88%
    22:00 +20°C° 0 mm 1 mps 703 mmHg 91%
    23:00 +19°C° 0 mm 1 mps 702 mmHg 92%

    Tomorrow, 21 January, Sunday

    Time Temperature Precipitation Wind Pressure Humidity
    00:00 +19°C° 0 mm 1 mps 702 mmHg 93%
    01:00 +19°C° 0 mm 1 mps 702 mmHg 94%
    02:00 +19°C° 0 mm 1 mps 702 mmHg 94%
    03:00 +19°C° 0 mm 1 mps 702 mmHg 95%
    04:00 +18°C° 0 mm 1 mps 701 mmHg 95%
    05:00 +18°C° 0 mm 1 mps 701 mmHg 95%
    06:00 +18°C° 0 mm 1 mps 702 mmHg 95%
    07:00 +18°C° 0 mm 1 mps 702 mmHg 94%
    08:00 +21°C° 0 mm 1 mps 703 mmHg 84%
    09:00 +23°C° 0 mm 1 mps 703 mmHg 74%
    10:00 +26°C° 0 mm 1 mps 704 mmHg 64%
    11:00 +27°C° 0 mm 1 mps 703 mmHg 61%
    12:00 +28°C° 0 mm 1 mps 703 mmHg 58%
    13:00 +29°C° 0 mm 1 mps 702 mmHg 55%
    14:00 +28°C° 0 mm 1 mps 702 mmHg 57%
    15:00 +28°C° 0 mm 1 mps 701 mmHg 59%
    16:00 +27°C° 0 mm 1 mps 700 mmHg 61%
    17:00 +25°C° 0 mm 1 mps 701 mmHg 68%
    18:00 +24°C° 0 mm 1 mps 701 mmHg 76%
    19:00 +22°C° 0 mm 1 mps 701 mmHg 84%
    20:00 +22°C° 0 mm 1 mps 702 mmHg 86%
    21:00 +21°C° 0 mm 1 mps 702 mmHg 89%
    22:00 +20°C° 0 mm 1 mps 702 mmHg 92%
    23:00 +20°C° 0 mm 1 mps 702 mmHg 92%

    Day after tomorrow, 22 January, Monday

    Time Temperature Precipitation Wind Pressure Humidity
    00:00 +20°C° 0 mm 1 mps 702 mmHg 93%
    01:00 +20°C° 0 mm 1 mps 702 mmHg 93%
    02:00 +19°C° 0 mm 1 mps 702 mmHg 93%
    03:00 +19°C° 0 mm 1 mps 701 mmHg 93%
    04:00 +19°C° 0 mm 1 mps 701 mmHg 93%
    05:00 +19°C° 0 mm 1 mps 701 mmHg 93%
    06:00 +19°C° 0 mm 1 mps 702 mmHg 92%
    07:00 +19°C° 0 mm 1 mps 702 mmHg 92%
    08:00 +21°C° 0 mm 1 mps 703 mmHg 83%
    09:00 +23°C° 0 mm 1 mps 704 mmHg 73%
    10:00 +25°C° 0 mm 1 mps 704 mmHg 64%
    11:00 +26°C° 0 mm 1 mps 704 mmHg 59%
    12:00 +28°C° 0 mm 1 mps 703 mmHg 54%
    13:00 +29°C° 0 mm 1 mps 702 mmHg 50%
    14:00 +29°C° 0 mm 1 mps 701 mmHg 51%
    15:00 +28°C° 0 mm 1 mps 701 mmHg 52%
    16:00 +28°C° 0 mm 1 mps 700 mmHg 53%
    17:00 +26°C° 0 mm 1 mps 700 mmHg 63%
    18:00 +24°C° 0 mm 1 mps 700 mmHg 72%
    19:00 +22°C° 0 mm 1 mps 701 mmHg 82%
    20:00 +21°C° 0 mm 1 mps 701 mmHg 85%
    21:00 +21°C° 0 mm 1 mps 701 mmHg 89%
    22:00 +20°C° 0 mm 1 mps 702 mmHg 92%
    23:00 +20°C° 0 mm 1 mps 701 mmHg 93%

    23 January, Tuesday

    Time Temperature Precipitation Wind Pressure Humidity
    00:00 +19°C° 0 mm 1 mps 701 mmHg 95%
    01:00 +19°C° 0 mm 1 mps 701 mmHg 96%
    02:00 +19°C° 0 mm 1 mps 701 mmHg 96%
    03:00 +18°C° 0 mm 1 mps 700 mmHg 97%
    04:00 +18°C° 0 mm 1 mps 700 mmHg 97%
    05:00 +18°C° 0 mm 1 mps 700 mmHg 96%
    06:00 +18°C° 0 mm 1 mps 701 mmHg 96%
    07:00 +18°C° 0 mm 1 mps 701 mmHg 96%
    08:00 +21°C° 0 mm 1 mps 702 mmHg 83%
    09:00 +24°C° 0 mm 1 mps 703 mmHg 70%
    10:00 +27°C° 0 mm 1 mps 704 mmHg 57%
    11:00 +28°C° 0 mm 1 mps 703 mmHg 51%
    12:00 +30°C° 0 mm 1 mps 703 mmHg 45%
    13:00 +32°C° 0 mm 1 mps 702 mmHg 39%
    14:00 +31°C° 0 mm 1 mps 701 mmHg 42%
    15:00 +30°C° 0 mm 1 mps 700 mmHg 46%
    16:00 +29°C° 0 mm 1 mps 700 mmHg 49%
    17:00 +27°C° 0 mm 1 mps 700 mmHg 59%
    18:00 +24°C° 0 mm 1 mps 700 mmHg 69%
    19:00 +22°C° 0 mm 1 mps 700 mmHg 79%
    20:00 +22°C° 0 mm 1 mps 701 mmHg 83%
    21:00 +21°C° 0 mm 1 mps 701 mmHg 87%
    22:00 +20°C° 0 mm 1 mps 701 mmHg 90%
    23:00 +20°C° 0 mm 1 mps 701 mmHg 92%

    24 January, Wednesday

    Time Temperature Precipitation Wind Pressure Humidity
    00:00 +20°C° 0 mm 1 mps 701 mmHg 93%
    01:00 +19°C° 0 mm 1 mps 701 mmHg 95%
    02:00 +19°C° 0 mm 1 mps 700 mmHg 96%
    03:00 +19°C° 0 mm 1 mps 700 mmHg 96%
    04:00 +18°C° 0 mm 1 mps 700 mmHg 97%
    05:00 +18°C° 0 mm 1 mps 700 mmHg 97%
    06:00 +18°C° 0 mm 1 mps 701 mmHg 96%
    07:00 +18°C° 0 mm 1 mps 701 mmHg 96%
    08:00 +21°C° 0 mm 1 mps 702 mmHg 82%
    09:00 +24°C° 0 mm 1 mps 703 mmHg 68%
    10:00 +27°C° 0 mm 1 mps 704 mmHg 54%
    11:00 +29°C° 0 mm 1 mps 703 mmHg 49%
    12:00 +30°C° 0 mm 1 mps 702 mmHg 44%
    13:00 +32°C° 0 mm 1 mps 702 mmHg 39%
    14:00 +31°C° 0 mm 1 mps 701 mmHg 41%
    15:00 +30°C° 0 mm 1 mps 700 mmHg 43%
    16:00 +30°C° 0 mm 1 mps 700 mmHg 46%
    17:00 +27°C° 0 mm 1 mps 700 mmHg 56%
    18:00 +25°C° 0 mm 1 mps 700 mmHg 66%
    19:00 +23°C° 0 mm 1 mps 700 mmHg 77%
    20:00 +22°C° 0 mm 1 mps 700 mmHg 81%
    21:00 +22°C° 0 mm 1 mps 700 mmHg 85%
    22:00 +21°C° 0 mm 1 mps 701 mmHg 89%
    23:00 +21°C° 0 mm 1 mps 700 mmHg 91%

    25 January, Thursday

    Time Temperature Precipitation Wind Pressure Humidity
    00:00 +20°C° 0 mm 1 mps 700 mmHg 93%
    01:00 +20°C° 0 mm 1 mps 700 mmHg 95%
    02:00 +20°C° 0 mm 1 mps 700 mmHg 95%
    03:00 +19°C° 0 mm 1 mps 700 mmHg 95%
    04:00 +19°C° 0 mm 1 mps 699 mmHg 95%
    05:00 +19°C° 0 mm 1 mps 700 mmHg 95%
    06:00 +19°C° 0 mm 1 mps 700 mmHg 94%
    07:00 +19°C° 0 mm 1 mps 701 mmHg 94%
    08:00 +22°C° 0 mm 1 mps 701 mmHg 80%
    09:00 +25°C° 0 mm 1 mps 702 mmHg 67%
    10:00 +28°C° 0 mm 1 mps 703 mmHg 53%
    11:00 +29°C° 0 mm 1 mps 702 mmHg 49%
    12:00 +31°C° 0 mm 1 mps 702 mmHg 44%
    13:00 +32°C° 0 mm 1 mps 701 mmHg 40%
    14:00 +31°C° 0 mm 1 mps 701 mmHg 43%
    15:00 +30°C° 0 mm 1 mps 700 mmHg 46%
    16:00 +30°C° 0 mm 1 mps 699 mmHg 50%
    17:00 +27°C° 0 mm 1 mps 700 mmHg 59%
    18:00 +25°C° 0 mm 1 mps 700 mmHg 69%
    19:00 +23°C° 0 mm 1 mps 700 mmHg 78%
    20:00 +23°C° 0 mm 1 mps 700 mmHg 82%
    21:00 +22°C° 0 mm 1 mps 700 mmHg 85%
    22:00 +22°C° 0 mm 1 mps 701 mmHg 89%
    23:00 +22°C° 0 mm 1 mps 700 mmHg 90%
    Show more